{"data":{"norad_id":64309,"epoch":"2026-05-25T00:52:17.304096Z","epoch_age_seconds":71784,"freshness":"FRESH","line1":"1 64309U 25123U   26145.03631139  .00004862  00000+0  41500-3 0  9991","line2":"2 64309  70.0019   1.9914 0002786 268.9824  91.1015 14.98326461 53051","mean_motion":14.98326461,"eccentricity":0.0002786,"inclination_deg":70.0019,"raan_deg":1.9914,"arg_perigee_deg":268.9824,"mean_anomaly_deg":91.1015,"bstar":0.000415,"rev_number":5305,"period_min":96.107226127404,"perigee_km":570.13050824308,"apogee_km":574.00316181996,"semimajor_km":6950.2038350315,"source":"CELESTRAK","updated_at":"2026-05-25T13:38:20.369715Z"}}